,,PA_Meas_PMT16A,,PR_Meas_QMR101_102,,RH_Meas_QMH101,,SR_Meas_QMS101,,TA_Meas_QMH101,,GenWind,,GenWind,
time,status,PA,status,PR,status,RH,status,SR,status,TA,status,DirAvg,status,SpdAvg,
2017-01-24, 15:14:04,VALID,920.09,VALID,0,INVALID,127.372,VALID,136.45,VALID,19.6473,VALID,245,VALID,0,
2017-01-24, 15:15:04,VALID,920.119,VALID,0,INVALID,127.502,VALID,140.64,VALID,19.7058,VALID,245,VALID,0,
2017-01-24, 15:16:04,VALID,920.127,VALID,0,INVALID,126.915,VALID,145.153,VALID,19.7628,VALID,245,VALID,0,
2017-01-24, 15:17:04,VALID,920.149,VALID,0,INVALID,126.053,VALID,149.451,VALID,19.8618,VALID,357,VALID,1.18711,
2017-01-24, 15:18:04,VALID,920.125,VALID,0,INVALID,118.529,VALID,154.285,VALID,19.8603,VALID,16,VALID,1.25078,
2017-01-24, 15:19:04,VALID,920.17,VALID,0,INVALID,122.203,VALID,159.228,VALID,19.9773,VALID,7,VALID,1.09102,
2017-01-24, 15:20:04,VALID,920.174,VALID,0,INVALID,125.52,VALID,163.525,VALID,20.0358,VALID,359,VALID,0.643359,
2017-01-24, 15:21:04,VALID,920.194,VALID,0,INVALID,124.384,VALID,168.575,VALID,20.0749,VALID,291,VALID,0,
2017-01-24, 15:22:04,VALID,920.179,VALID,0,INVALID,112.971,VALID,174.377,VALID,20.0749,VALID,292,VALID,0,
2017-01-24, 15:23:04,VALID,920.181,VALID,0,INVALID,114.588,VALID,178.352,VALID,20.0944,VALID,314,VALID,0,
2017-01-24, 15:24:04,VALID,920.174,VALID,0,INVALID,116.669,VALID,183.08,VALID,20.1529,VALID,336,VALID,0,
2017-01-24, 15:25:04,VALID,920.177,VALID,0,INVALID,120.732,VALID,187.377,VALID,20.2114,VALID,336,VALID,0,
2017-01-24, 15:26:04,VALID,920.16,VALID,0,INVALID,118.46,VALID,190.601,VALID,20.2894,VALID,336,VALID,0,
2017-01-24, 15:27:04,VALID,920.19,VALID,0,INVALID,114.832,VALID,195.221,VALID,20.3674,VALID,292,VALID,0,
2017-01-24, 15:28:04,VALID,920.184,VALID,0,VALID,103.084,VALID,198.551,VALID,20.3479,VALID,274,VALID,0,
2017-01-24, 15:29:04,VALID,920.206,VALID,0,VALID,104,VALID,203.816,VALID,20.2699,VALID,274,VALID,0,
2017-01-24, 15:30:04,VALID,920.162,VALID,0,INVALID,119.169,VALID,210.047,VALID,20.2293,VALID,274,VALID,0,
2017-01-24, 15:31:04,VALID,920.204,VALID,0,INVALID,122.989,VALID,220.792,VALID,20.2309,VALID,274,VALID,0,
2017-01-24, 15:32:04,VALID,920.174,VALID,0,INVALID,123.964,VALID,225.626,VALID,20.2684,VALID,274,VALID,0,
2017-01-24, 15:33:04,VALID,920.16,VALID,0,INVALID,123.606,VALID,231.858,VALID,20.2684,VALID,274,VALID,0,
2017-01-24, 15:34:04,VALID,920.176,VALID,0,INVALID,119.916,VALID,238.412,VALID,20.3284,VALID,274,VALID,0,
2017-01-24, 15:35:04,VALID,920.181,VALID,0,INVALID,118.514,VALID,241.098,VALID,20.3659,VALID,274,VALID,0,
2017-01-24, 15:36:04,VALID,920.198,VALID,0,INVALID,119.863,VALID,251.412,VALID,20.4634,VALID,274,VALID,0,
2017-01-24, 15:37:04,VALID,920.253,VALID,0,INVALID,111.309,VALID,251.735,VALID,20.5804,VALID,274,VALID,0,
2017-01-24, 15:38:04,VALID,920.266,VALID,0,VALID,102.466,VALID,254.313,VALID,20.7365,VALID,280,VALID,0,
2017-01-24, 15:39:04,VALID,920.31,VALID,0,VALID,103.953,VALID,256.999,VALID,20.9722,VALID,349,VALID,0,
2017-01-24, 15:40:04,VALID,920.342,VALID,0,VALID,98.4945,VALID,275.479,VALID,21.1071,VALID,360,VALID,0,
2017-01-24, 15:41:04,VALID,920.376,VALID,0,VALID,86.5258,VALID,299.116,VALID,21.1657,VALID,4,VALID,0,
2017-01-24, 15:42:04,VALID,920.395,VALID,0,VALID,85.9769,VALID,321.142,VALID,21.2827,VALID,346,VALID,0,
2017-01-24, 15:43:04,VALID,920.425,VALID,0,VALID,88.1953,VALID,300.943,VALID,21.4372,VALID,356,VALID,0,
2017-01-24, 15:44:04,VALID,920.444,VALID,0,VALID,84.6809,VALID,308.893,VALID,21.5559,VALID,12,VALID,0,
2017-01-24, 15:45:04,VALID,920.455,VALID,0,VALID,84.9782,VALID,340.051,VALID,21.6144,VALID,16,VALID,0,
2017-01-24, 15:46:04,VALID,920.465,VALID,0,VALID,86.4724,VALID,351.01,VALID,21.6534,VALID,14,VALID,0,
2017-01-24, 15:47:04,VALID,920.463,VALID,0,VALID,87.311,VALID,349.291,VALID,21.79,VALID,2,VALID,0,
2017-01-24, 15:48:04,VALID,920.497,VALID,0,VALID,82.7598,VALID,365.622,VALID,21.9266,VALID,315,VALID,0,
2017-01-24, 15:49:04,VALID,920.48,VALID,0,VALID,82.8589,VALID,365.085,VALID,22.0437,VALID,353,VALID,0,
2017-01-24, 15:50:04,VALID,920.5,VALID,0,VALID,83.5374,VALID,374.54,VALID,22.1786,VALID,327,VALID,0,
2017-01-24, 15:51:04,VALID,920.522,VALID,0,VALID,81.7154,VALID,383.565,VALID,22.2762,VALID,296,VALID,0,
2017-01-24, 15:52:04,VALID,920.535,VALID,0,VALID,80.4728,VALID,373.465,VALID,22.2957,VALID,300,VALID,0,
2017-01-24, 15:53:04,VALID,920.557,VALID,0,VALID,80.1069,VALID,389.259,VALID,22.3737,VALID,328,VALID,0,
2017-01-24, 15:54:04,VALID,920.55,VALID,0,VALID,75.9445,VALID,404.086,VALID,22.4713,VALID,301,VALID,0,
2017-01-24, 15:55:04,VALID,920.592,VALID,0,VALID,74.7476,VALID,399.681,VALID,22.4713,VALID,293,VALID,0,
2017-01-24, 15:56:04,VALID,920.587,VALID,0,VALID,77.3624,VALID,360.465,VALID,22.5299,INVALID,360,VALID,0,
2017-01-24, 15:57:04,VALID,920.595,VALID,0,VALID,77.8427,VALID,349.828,VALID,22.647,VALID,286,VALID,0,
2017-01-24, 15:58:04,VALID,920.583,VALID,0,VALID,72.918,VALID,323.29,VALID,22.6452,VALID,272,VALID,0,
2017-01-24, 15:59:04,VALID,920.616,VALID,0,VALID,74.7095,VALID,302.339,VALID,22.5867,VALID,297,VALID,0,
2017-01-24, 16:00:04,VALID,920.602,VALID,0,VALID,74.7552,VALID,298.042,VALID,22.5477,VALID,280,VALID,0.266406,
2017-01-24, 16:01:04,VALID,920.587,VALID,0,VALID,74.9763,VALID,307.819,VALID,22.4518,VALID,320,VALID,0,
2017-01-24, 16:02:04,VALID,920.599,VALID,0,VALID,75.6777,VALID,330.274,VALID,22.5086,VALID,308,VALID,0,
2017-01-24, 16:03:04,VALID,920.599,VALID,0,VALID,73.5583,VALID,303.951,VALID,22.5103,VALID,284,VALID,0,
2017-01-24, 16:04:04,VALID,920.613,VALID,0,VALID,73.9548,VALID,296.43,VALID,22.5494,VALID,284,VALID,0,
2017-01-24, 16:05:04,VALID,920.636,VALID,0,VALID,72.5216,VALID,299.868,VALID,22.5689,VALID,315,VALID,0,
2017-01-24, 16:06:04,VALID,920.636,VALID,0,VALID,74.4122,VALID,292.67,VALID,22.5299,INVALID,360,VALID,0,
2017-01-24, 16:07:04,VALID,920.642,VALID,0,VALID,74.9077,VALID,286.76,VALID,22.5281,INVALID,360,VALID,0,
2017-01-24, 16:08:04,VALID,920.66,VALID,0,VALID,75.67,VALID,286.546,VALID,22.6665,INVALID,360,VALID,0,
2017-01-24, 16:09:04,VALID,920.682,VALID,0,VALID,76.6458,VALID,287.942,VALID,22.7428,VALID,331,VALID,0,
2017-01-24, 16:10:04,VALID,920.685,VALID,0,VALID,74.7247,VALID,301.48,VALID,22.8616,VALID,310,VALID,0,
2017-01-24, 16:11:04,VALID,920.714,VALID,0,VALID,75.8606,VALID,322.216,VALID,22.8209,VALID,310,VALID,0,
2017-01-24, 16:12:04,VALID,920.705,VALID,0,VALID,73.6498,VALID,345.208,VALID,22.8031,VALID,310,VALID,0,
2017-01-24, 16:13:04,VALID,920.737,VALID,0,VALID,73.7718,VALID,337.043,VALID,22.7233,VALID,310,VALID,0,
2017-01-24, 16:14:04,VALID,920.745,VALID,0,VALID,75.3041,VALID,314.373,VALID,22.8209,VALID,310,VALID,0,
2017-01-24, 16:15:04,VALID,920.73,VALID,0,VALID,75.5099,VALID,284.182,VALID,22.9965,VALID,311,VALID,0,
2017-01-24, 16:16:04,VALID,920.775,VALID,0,VALID,72.3081,VALID,270.322,VALID,22.9965,INVALID,360,VALID,0,
2017-01-24, 16:17:04,VALID,920.798,VALID,0,VALID,73.6041,VALID,273.975,VALID,22.8794,VALID,297,VALID,0,
2017-01-24, 16:18:04,VALID,920.783,VALID,0,VALID,75.327,VALID,282.033,VALID,22.8582,VALID,316,VALID,0,
2017-01-24, 16:19:04,VALID,920.794,VALID,0,VALID,75.4871,VALID,283.107,VALID,22.9362,VALID,25,VALID,0,
2017-01-24, 16:20:04,VALID,920.819,VALID,0,VALID,74.6866,VALID,290.736,VALID,22.977,VALID,24,VALID,0,
2017-01-24, 16:21:04,VALID,920.854,VALID,0,VALID,75.8454,VALID,297.719,VALID,23.016,VALID,333,VALID,0,
2017-01-24, 16:22:04,VALID,920.846,VALID,0,VALID,76.6763,VALID,291.81,VALID,23.0338,VALID,20,VALID,0,
2017-01-24, 16:23:04,VALID,920.85,VALID,0,VALID,73.7947,VALID,294.281,VALID,23.2112,VALID,6,VALID,0,
2017-01-24, 16:24:04,VALID,920.861,VALID,0,VALID,71.9193,VALID,308.356,VALID,23.2893,VALID,348,VALID,0,
2017-01-24, 16:25:04,VALID,920.827,VALID,0,VALID,71.0655,VALID,314.91,VALID,23.307,VALID,346,VALID,0,
2017-01-24, 16:26:04,VALID,920.799,VALID,0,VALID,73.261,VALID,323.828,VALID,23.307,VALID,346,VALID,0,
2017-01-24, 16:27:04,VALID,920.836,VALID,0,VALID,70.7605,VALID,330.382,VALID,23.3283,VALID,289,VALID,0,
2017-01-24, 16:28:04,VALID,920.806,VALID,0,VALID,71.6372,VALID,327.91,VALID,23.2485,VALID,288,VALID,0,
2017-01-24, 16:29:04,VALID,920.828,VALID,0,VALID,70.9435,VALID,330.704,VALID,23.3088,VALID,289,VALID,0,
2017-01-24, 16:30:04,VALID,920.795,VALID,0,VALID,72.0184,VALID,339.407,VALID,23.3869,VALID,11,VALID,0,
2017-01-24, 16:31:04,VALID,920.814,VALID,0,VALID,71.8736,VALID,341.018,VALID,23.3656,VALID,283,VALID,0,
2017-01-24, 16:32:04,VALID,920.799,VALID,0,VALID,71.8507,VALID,350.795,VALID,23.307,VALID,306,VALID,0,
2017-01-24, 16:33:04,VALID,920.783,VALID,0,VALID,73.0323,VALID,375.399,VALID,23.1509,VALID,328,VALID,0,
2017-01-24, 16:34:04,VALID,920.794,VALID,0,VALID,73.5888,VALID,393.664,VALID,23.1899,VALID,359,VALID,0,
2017-01-24, 16:35:04,VALID,920.831,VALID,0,VALID,71.8964,VALID,395.598,VALID,23.2094,VALID,21,VALID,0,
2017-01-24, 16:36:04,VALID,920.802,VALID,0,VALID,73.1924,VALID,416.442,VALID,23.229,VALID,280,VALID,0,
2017-01-24, 16:37:04,VALID,920.776,VALID,0,VALID,74.0386,VALID,435.244,VALID,23.2875,VALID,17,VALID,0,
2017-01-24, 16:38:04,VALID,920.77,VALID,0,VALID,75.0754,VALID,471.022,VALID,23.4632,VALID,350,VALID,0,
2017-01-24, 16:39:04,VALID,920.788,VALID,0,VALID,72.026,VALID,413.541,VALID,23.4419,VALID,268,VALID,0,
2017-01-24, 16:40:04,VALID,920.777,VALID,0,VALID,73.1695,VALID,366.912,VALID,23.4454,VALID,278,VALID,0,
2017-01-24, 16:41:04,VALID,920.809,VALID,0,VALID,72.3462,VALID,340.911,VALID,23.3851,VALID,279,VALID,0,
2017-01-24, 16:42:04,VALID,920.838,VALID,0,VALID,72.5368,VALID,339.729,VALID,23.4064,VALID,344,VALID,0.437891,
2017-01-24, 16:43:04,VALID,920.849,VALID,0,VALID,71.5076,VALID,339.514,VALID,23.4632,VALID,305,VALID,0.446094,
2017-01-24, 16:44:04,VALID,920.847,VALID,0,VALID,75.1669,VALID,353.911,VALID,23.4632,VALID,299,VALID,0.500781,
2017-01-24, 16:45:04,VALID,920.854,VALID,0,VALID,72.4072,VALID,351.87,VALID,23.4437,VALID,281,VALID,0,
2017-01-24, 16:46:04,VALID,920.856,VALID,0,VALID,72.9942,VALID,353.589,VALID,23.4241,VALID,284,VALID,0,
2017-01-24, 16:47:04,VALID,920.834,VALID,0,VALID,70.4709,VALID,360.465,VALID,23.3265,VALID,260,VALID,0,
2017-01-24, 16:48:04,VALID,920.844,VALID,0,VALID,76.379,VALID,366.159,VALID,23.4046,VALID,284,VALID,0,
2017-01-24, 16:49:04,VALID,920.852,VALID,0,VALID,73.505,VALID,374.11,VALID,23.5803,VALID,30,VALID,0,
2017-01-24, 16:50:04,VALID,920.852,VALID,0,VALID,74.1453,VALID,396.565,VALID,23.6779,VALID,360,VALID,0,
2017-01-24, 16:51:04,VALID,920.854,VALID,0,VALID,72.0413,VALID,414.078,VALID,23.7737,VALID,331,VALID,0,
2017-01-24, 16:52:04,VALID,920.863,VALID,0,VALID,72.4453,VALID,419.128,VALID,23.8536,VALID,322,VALID,0,
2017-01-24, 16:53:04,VALID,920.863,VALID,0,VALID,72.3081,VALID,428.583,VALID,23.8145,VALID,300,VALID,0,
2017-01-24, 16:54:04,VALID,920.85,VALID,0,VALID,72.2319,VALID,440.724,VALID,23.9493,VALID,320,VALID,0,
2017-01-24, 16:55:04,VALID,920.852,VALID,0,VALID,68.4888,VALID,434.922,VALID,24.0097,VALID,348,VALID,0,
2017-01-24, 16:56:04,VALID,920.843,VALID,0,VALID,71.096,VALID,448.567,VALID,23.9689,VALID,343,VALID,0,
2017-01-24, 16:57:04,VALID,920.829,VALID,0,VALID,69.396,VALID,454.046,VALID,24.0469,VALID,290,VALID,0,
2017-01-24, 16:58:04,VALID,920.855,VALID,0,VALID,71.0502,VALID,466.617,VALID,24.1464,VALID,10,VALID,0,
2017-01-24, 16:59:04,VALID,920.844,VALID,0,VALID,71.7592,VALID,452.542,VALID,24.1836,VALID,38,VALID,0,
2017-01-24, 17:00:04,VALID,920.872,VALID,0,VALID,66.6439,VALID,438.252,VALID,24.3007,VALID,351,VALID,0,
2017-01-24, 17:01:04,VALID,920.844,VALID,0,VALID,67.0708,VALID,416.442,VALID,24.2226,VALID,272,VALID,0,
2017-01-24, 17:02:04,VALID,920.901,VALID,0,VALID,69.1215,VALID,408.706,VALID,24.1836,VALID,11,VALID,0,
2017-01-24, 17:03:04,VALID,920.861,VALID,0,VALID,71.3247,VALID,415.367,VALID,24.3202,VALID,344,VALID,0,
2017-01-24, 17:04:04,VALID,920.859,VALID,0,VALID,68.1762,VALID,426.004,VALID,24.2617,VALID,25,VALID,0,
2017-01-24, 17:05:04,VALID,920.855,VALID,0,VALID,70.8063,VALID,413.541,VALID,24.2617,VALID,42,VALID,0,
2017-01-24, 17:06:04,VALID,920.838,VALID,0,VALID,69.983,VALID,404.623,VALID,24.3983,VALID,346,VALID,0,
2017-01-24, 17:07:04,VALID,920.841,VALID,0,VALID,67.9094,VALID,398.499,VALID,24.5155,VALID,6,VALID,0,
2017-01-24, 17:08:04,VALID,920.853,VALID,0,VALID,66.9031,VALID,398.714,VALID,24.6521,VALID,333,VALID,0,
2017-01-24, 17:09:04,VALID,920.815,VALID,0,VALID,66.8955,VALID,399.144,VALID,24.693,VALID,2,VALID,0,
2017-01-24, 17:10:04,VALID,920.831,VALID,0,VALID,68.9995,VALID,397.64,VALID,24.8102,VALID,6,VALID,0,
2017-01-24, 17:11:04,VALID,920.81,VALID,0,VALID,64.3188,VALID,393.02,VALID,24.8492,VALID,17,VALID,0.796094,
2017-01-24, 17:12:04,VALID,920.809,VALID,0,VALID,67.1318,VALID,392.268,VALID,24.8474,VALID,349,VALID,1.25195,
2017-01-24, 17:13:04,VALID,920.806,VALID,0,VALID,64.799,VALID,394.094,VALID,24.535,VALID,313,VALID,1.01289,
2017-01-24, 17:14:04,VALID,920.789,VALID,0,VALID,70.9283,VALID,396.888,VALID,24.2812,VALID,39,VALID,1.42695,
2017-01-24, 17:15:04,VALID,920.798,VALID,0,VALID,69.7314,VALID,397.317,VALID,24.3007,VALID,23,VALID,1.2,
2017-01-24, 17:16:04,VALID,920.767,VALID,0,VALID,69.678,VALID,396.888,VALID,24.2635,VALID,11,VALID,1.51445,
2017-01-24, 17:17:04,VALID,920.752,VALID,0,VALID,71.1875,VALID,398.499,VALID,24.2031,VALID,28,VALID,1.07031,
2017-01-24, 17:18:04,VALID,920.761,VALID,0,VALID,70.4861,VALID,402.152,VALID,24.3611,VALID,6,VALID,1.04609,
2017-01-24, 17:19:04,VALID,920.753,VALID,0,VALID,68.6031,VALID,411.392,VALID,24.4783,VALID,306,VALID,1.00352,
2017-01-24, 17:20:04,VALID,920.768,VALID,0,VALID,68.9309,VALID,427.186,VALID,24.3788,VALID,3,VALID,1.01992,
2017-01-24, 17:21:04,VALID,920.761,VALID,0,VALID,69.9677,VALID,453.509,VALID,24.3983,VALID,6,VALID,0.758594,
2017-01-24, 17:22:04,VALID,920.731,VALID,0,VALID,69.3197,VALID,491.651,VALID,24.5935,VALID,16,VALID,1.55195,
2017-01-24, 17:23:04,VALID,920.74,VALID,0,VALID,68.7708,VALID,535.594,VALID,24.7479,VALID,12,VALID,1.08594,
2017-01-24, 17:24:04,VALID,920.742,VALID,0,VALID,63.4726,VALID,550.636,VALID,24.8083,VALID,277,VALID,1.45,
2017-01-24, 17:25:04,VALID,920.74,VALID,0,VALID,67.9018,VALID,547.198,VALID,24.7107,VALID,340,VALID,1.06836,
2017-01-24, 17:26:04,VALID,920.748,VALID,0,VALID,66.5524,VALID,561.058,VALID,24.6893,VALID,1,VALID,1.11172,
2017-01-24, 17:27:04,VALID,920.737,VALID,0,VALID,68.9386,VALID,539.677,VALID,24.7302,VALID,8,VALID,1.02383,
2017-01-24, 17:28:04,VALID,920.724,VALID,0,VALID,65.3784,VALID,485.097,VALID,24.7107,VALID,339,VALID,1.29375,
2017-01-24, 17:29:04,VALID,920.713,VALID,0,VALID,68.2906,VALID,455.228,VALID,24.6912,VALID,13,VALID,1.40117,
2017-01-24, 17:30:04,VALID,920.693,VALID,0,VALID,67.5358,VALID,461.46,VALID,24.7088,VALID,12,VALID,1.69961,
2017-01-24, 17:31:04,VALID,920.686,VALID,0,VALID,69.6247,VALID,475.857,VALID,24.7479,VALID,21,VALID,1.82734,
2017-01-24, 17:32:04,VALID,920.7,VALID,0,VALID,66.6134,VALID,486.923,VALID,24.7283,VALID,14,VALID,2.16211,
2017-01-24, 17:33:04,VALID,920.66,VALID,0,VALID,66.8802,VALID,483.378,VALID,24.4355,VALID,34,VALID,2.2875,
2017-01-24, 17:34:04,VALID,920.656,VALID,0,VALID,70.3413,VALID,472.956,VALID,24.2793,VALID,23,VALID,1.29102,
2017-01-24, 17:35:04,VALID,920.669,VALID,0,VALID,71.0274,VALID,447.063,VALID,24.2793,VALID,351,VALID,1.29492,
2017-01-24, 17:36:04,VALID,920.679,VALID,0,VALID,68.6565,VALID,428.26,VALID,24.3769,VALID,20,VALID,0.369922,
2017-01-24, 17:37:04,VALID,920.632,VALID,0,VALID,70.3794,VALID,441.476,VALID,24.5331,VALID,14,VALID,0,
2017-01-24, 17:38:04,VALID,920.625,VALID,0,VALID,69.9677,VALID,413.111,VALID,24.5526,VALID,323,VALID,0,
2017-01-24, 17:39:04,VALID,920.648,VALID,0,VALID,69.5484,VALID,445.558,VALID,24.6112,VALID,15,VALID,0,
2017-01-24, 17:40:04,VALID,920.627,VALID,0,VALID,69.091,VALID,442.872,VALID,24.4941,VALID,15,VALID,0.0726563,
2017-01-24, 17:41:04,VALID,920.63,VALID,0,VALID,70.3641,VALID,449.641,VALID,24.3751,VALID,26,VALID,1.30781,
2017-01-24, 17:42:04,VALID,920.637,VALID,0,VALID,69.2511,VALID,451.468,VALID,24.416,VALID,7,VALID,0.983984,
2017-01-24, 17:43:04,VALID,920.619,VALID,0,VALID,70.8368,VALID,459.741,VALID,24.455,VALID,5,VALID,1.46211,
2017-01-24, 17:44:04,VALID,920.651,VALID,0,VALID,70.9664,VALID,456.088,VALID,24.3184,VALID,292,VALID,0.504687,
2017-01-24, 17:45:04,VALID,920.638,VALID,0,VALID,72.7655,VALID,455.336,VALID,24.3788,VALID,11,VALID,1.34492,
2017-01-24, 17:46:04,VALID,920.682,VALID,0,VALID,71.3475,VALID,451.79,VALID,24.5136,VALID,10,VALID,1.0418,
2017-01-24, 17:47:04,VALID,920.643,VALID,0,VALID,71.0426,VALID,458.559,VALID,24.6112,VALID,6,VALID,0.9,
2017-01-24, 17:48:04,VALID,920.671,VALID,0,VALID,69.6247,VALID,454.046,VALID,24.5935,VALID,30,VALID,1.63086,
2017-01-24, 17:49:04,VALID,920.687,VALID,0,VALID,71.8659,VALID,452.757,VALID,24.6521,VALID,10,VALID,1.46133,
2017-01-24, 17:50:04,VALID,920.663,VALID,0,VALID,69.6323,VALID,438.467,VALID,24.6698,VALID,20,VALID,1.84414,
2017-01-24, 17:51:04,VALID,920.677,VALID,0,VALID,70.5547,VALID,423.426,VALID,24.5331,VALID,353,VALID,1.01211,
2017-01-24, 17:52:04,VALID,920.66,VALID,0,VALID,69.7924,VALID,425.252,VALID,24.4959,VALID,40,VALID,0,
2017-01-24, 17:53:04,VALID,920.618,VALID,0,VALID,70.6767,VALID,427.831,VALID,24.3574,VALID,11,VALID,0,
2017-01-24, 17:54:04,VALID,920.632,VALID,0,VALID,70.7605,VALID,430.409,VALID,24.2013,VALID,353,VALID,0,
2017-01-24, 17:55:04,VALID,920.618,VALID,0,VALID,73.4211,VALID,429.765,VALID,24.1817,VALID,6,VALID,0,
2017-01-24, 17:56:04,VALID,920.607,VALID,0,VALID,70.8749,VALID,434.17,VALID,24.2013,VALID,292,VALID,0,
2017-01-24, 17:57:04,VALID,920.616,VALID,0,VALID,70.9664,VALID,420.095,VALID,24.1817,VALID,299,VALID,0.071875,
2017-01-24, 17:58:04,VALID,920.603,VALID,0,VALID,71.0579,VALID,428.368,VALID,24.0842,VALID,11,VALID,2.33867,
2017-01-24, 17:59:04,VALID,920.614,VALID,0,VALID,71.8507,VALID,424.93,VALID,23.9866,VALID,27,VALID,1.52539,
2017-01-24, 18:00:04,VALID,920.617,VALID,0,VALID,75.2812,VALID,412.467,VALID,23.928,VALID,16,VALID,1.71641,
2017-01-24, 18:01:04,VALID,920.635,VALID,0,VALID,74.2749,VALID,424.607,VALID,24.0061,VALID,17,VALID,0.860937,
2017-01-24, 18:02:04,VALID,920.61,VALID,0,VALID,74.679,VALID,430.732,VALID,23.9866,VALID,10,VALID,1.01758,
2017-01-24, 18:03:04,VALID,920.628,VALID,0,VALID,72.0946,VALID,434.814,VALID,23.8304,VALID,339,VALID,0.199219,
2017-01-24, 18:04:04,VALID,920.646,VALID,0,VALID,76.0969,VALID,436.426,VALID,23.7133,VALID,359,VALID,0,
2017-01-24, 18:05:04,VALID,920.597,VALID,0,VALID,73.4592,VALID,437.071,VALID,23.7719,VALID,12,VALID,1.375,
2017-01-24, 18:06:04,VALID,920.584,VALID,0,VALID,72.5597,VALID,445.344,VALID,23.8304,VALID,31,VALID,1.71133,
2017-01-24, 18:07:04,VALID,920.581,VALID,0,VALID,73.1314,VALID,459.741,VALID,23.9085,VALID,43,VALID,1.12305,
2017-01-24, 18:08:04,VALID,920.559,VALID,0,VALID,69.9067,VALID,478.973,VALID,24.0646,VALID,306,VALID,0.729688,
2017-01-24, 18:09:04,VALID,920.542,VALID,0,VALID,72.7731,VALID,486.494,VALID,24.1037,VALID,20,VALID,1.08398,
2017-01-24, 18:10:04,VALID,920.575,VALID,0,VALID,76.6535,VALID,503.577,VALID,24.2598,VALID,8,VALID,1.15586,
2017-01-24, 18:11:04,VALID,920.562,VALID,0,VALID,72.4377,VALID,516.792,VALID,24.3965,VALID,348,VALID,0.778516,
2017-01-24, 18:12:04,VALID,920.542,VALID,0,VALID,71.1112,VALID,521.734,VALID,24.4745,VALID,19,VALID,0,
2017-01-24, 18:13:04,VALID,920.536,VALID,0,VALID,73.6956,VALID,525.065,VALID,24.5526,VALID,14,VALID,0.00273437,
2017-01-24, 18:14:04,VALID,920.555,VALID,0,VALID,73.0399,VALID,529.255,VALID,24.7674,VALID,53,VALID,0,
2017-01-24, 18:15:04,VALID,920.513,VALID,0,VALID,70.9511,VALID,540.322,VALID,24.9021,VALID,16,VALID,0.00664063,
2017-01-24, 18:16:04,VALID,920.514,VALID,0,VALID,70.0744,VALID,556.33,VALID,25.0388,VALID,308,VALID,0,
2017-01-24, 18:17:04,VALID,920.504,VALID,0,VALID,68.9309,VALID,566.107,VALID,25.1169,VALID,337,VALID,0,
2017-01-24, 18:18:04,VALID,920.471,VALID,0,VALID,66.3008,VALID,575.885,VALID,25.0388,VALID,242,VALID,0,
2017-01-24, 18:19:04,VALID,920.5,VALID,0,VALID,68.5345,VALID,570.513,VALID,24.9998,VALID,355,VALID,0.598437,
2017-01-24, 18:20:04,VALID,920.495,VALID,0,VALID,69.0377,VALID,531.404,VALID,25.0602,VALID,36,VALID,0,
2017-01-24, 18:21:04,VALID,920.47,VALID,0,VALID,69.8076,VALID,579.967,VALID,25.0778,VALID,14,VALID,1.65313,
2017-01-24, 18:22:04,VALID,920.461,VALID,0,VALID,70.7529,VALID,577.711,VALID,25.0583,VALID,46,VALID,1.19961,
2017-01-24, 18:23:04,VALID,920.459,VALID,0,VALID,68.039,VALID,580.505,VALID,24.9998,VALID,359,VALID,0.121875,
2017-01-24, 18:24:04,VALID,920.423,VALID,0,VALID,67.4291,VALID,578.785,VALID,24.8259,VALID,353,VALID,1.62344,
2017-01-24, 18:25:04,VALID,920.413,VALID,0,VALID,70.1659,VALID,574.273,VALID,24.6112,VALID,24,VALID,0.842969,
2017-01-24, 18:26:04,VALID,920.463,VALID,0,VALID,70.8368,VALID,567.289,VALID,24.5722,VALID,335,VALID,0.00273437,
2017-01-24, 18:27:04,VALID,920.437,VALID,0,VALID,70.0592,VALID,508.519,VALID,24.6112,VALID,18,VALID,0.805469,
2017-01-24, 18:28:04,VALID,920.455,VALID,0,VALID,70.1202,VALID,586.736,VALID,24.7674,VALID,36,VALID,0.0621094,
2017-01-24, 18:29:04,VALID,920.474,VALID,0,VALID,65.2336,VALID,591.678,VALID,24.7674,VALID,294,VALID,0.938281,
2017-01-24, 18:30:04,VALID,920.478,VALID,0,VALID,64.7838,VALID,586.736,VALID,24.6307,VALID,310,VALID,0,
2017-01-24, 18:31:04,VALID,920.446,VALID,0,VALID,67.0937,VALID,539.355,VALID,24.6698,VALID,261,VALID,0,
2017-01-24, 18:32:04,VALID,920.427,VALID,0,VALID,69.6247,VALID,558.801,VALID,24.7869,VALID,8,VALID,0,
2017-01-24, 18:33:04,VALID,920.447,VALID,0,VALID,70.6614,VALID,629.498,VALID,24.9412,VALID,44,VALID,0,
2017-01-24, 18:34:04,VALID,920.423,VALID,0,VALID,67.0327,VALID,512.387,VALID,25.0798,VALID,25,VALID,1.05977,
2017-01-24, 18:35:04,VALID,920.391,VALID,0,VALID,69.1063,VALID,607.902,VALID,25.1383,VALID,23,VALID,1.45352,
2017-01-24, 18:36:04,VALID,920.457,VALID,0,VALID,70.5928,VALID,566,VALID,25.1579,VALID,353,VALID,0.456641,
2017-01-24, 18:37:04,VALID,920.345,VALID,0,VALID,67.7341,VALID,426.219,VALID,25.0798,VALID,32,VALID,1.52891,
2017-01-24, 18:38:04,VALID,920.356,VALID,0,VALID,68.6946,VALID,518.081,VALID,24.9821,VALID,45,VALID,0,
2017-01-24, 18:39:04,VALID,920.35,VALID,0,VALID,63.991,VALID,674.73,VALID,24.9998,VALID,224,VALID,0.084375,
2017-01-24, 18:40:04,VALID,920.349,VALID,0,VALID,63.8232,VALID,672.797,VALID,25.0193,VALID,303,VALID,0,
2017-01-24, 18:41:04,VALID,920.363,VALID,0,VALID,66.4,VALID,634.977,VALID,24.9217,VALID,47,VALID,0,
2017-01-24, 18:42:04,VALID,920.315,VALID,0,VALID,67.6349,VALID,487.138,VALID,24.8631,VALID,7,VALID,1.60156,
2017-01-24, 18:43:04,VALID,920.338,VALID,0,VALID,66.0569,VALID,644.862,VALID,24.7655,VALID,307,VALID,0,
2017-01-24, 18:44:04,VALID,920.313,VALID,0,VALID,69.1749,VALID,661.515,VALID,24.7265,VALID,18,VALID,0,
2017-01-24, 18:45:04,VALID,920.295,VALID,0,VALID,70.204,VALID,625.845,VALID,24.8436,VALID,32,VALID,0.0714844,
2017-01-24, 18:46:04,VALID,920.306,VALID,0,VALID,71.0579,VALID,648.622,VALID,24.9802,VALID,357,VALID,0,
2017-01-24, 18:47:04,VALID,920.301,VALID,0,VALID,70.1507,VALID,617.679,VALID,25.2945,VALID,21,VALID,0.385547,
2017-01-24, 18:48:04,VALID,920.314,VALID,0,VALID,61.6124,VALID,420.632,VALID,25.2164,VALID,277,VALID,0.00195313,
2017-01-24, 18:49:04,VALID,920.317,VALID,0,VALID,64.799,VALID,588.885,VALID,24.9217,VALID,255,VALID,0.194531,
2017-01-24, 18:50:04,VALID,920.306,VALID,0,VALID,70.0744,VALID,648.73,VALID,24.9998,VALID,341,VALID,0,
2017-01-24, 18:51:04,VALID,920.221,VALID,0,VALID,67.8713,VALID,517.222,VALID,25.1559,VALID,15,VALID,0.255859,
2017-01-24, 18:52:04,VALID,920.271,VALID,0,VALID,69.0377,VALID,533.768,VALID,25.2145,VALID,15,VALID,1.25273,
2017-01-24, 18:53:04,VALID,920.171,VALID,0,VALID,65.2031,VALID,519.263,VALID,25.2145,VALID,16,VALID,1.97656,
2017-01-24, 18:54:04,VALID,920.195,VALID,0,VALID,70.3717,VALID,490.361,VALID,25.0388,VALID,355,VALID,0.457812,
2017-01-24, 18:55:04,VALID,920.225,VALID,0,VALID,71.5763,VALID,559.446,VALID,25.0798,VALID,4,VALID,0.660937,